Temp
48 48 49 48 48 47 48 48 49 48 47 47 45 45 43 43 46 39 40 42 43 47 47 49 50 52 53 53 52 51 50 55 56 51 51 49 49 55 55 54 55 55 55 56 55 56 57 57 57 59 59 59 58 57 57 56 55 55 56 55 55 54 53 53 52 53 54 55 55 54 54 55 55 55
49 49 49 49 48 48 49 49 48 47 47 46 47 45 43 44 44 35 37 41 39 46 44 47 51 50 54 53 52 51 50 57 56 51 50 50 52 55 55 54 53 54 54 53 53 54 55 55 57 58 58 58 58 57 56 55 55 55 55 54 53 52 52 52 52 53 53 54 53 54 54 54 54 54
50 49 48 47 47 47 48 48 49 47 48 46 45 44 46 46 45 42 36 41 43 44 46 44 48 50 49 52 49 51 52 55 55 50 50 51 55 56 54 54 54 53 53 53 54 56 55 53 54 56 57 57 57 57 56 55 54 55 54 52 51 52 52 51 52 53 53 53 53 53 53 53 53 54
49 48 48 47 48 46 47 47 47 46 47 47 45 46 47 44 44 42 37 40 43 41 49 48 47 50 49 49 50 51 52 54 55 49 49 52 54 51 51 53 54 53 53 53 53 54 53 52 53 55 55 55 55 56 54 53 53 53 52 51 50 50 50 51 51 52 52 51 52 52 51 51 52 52
48 48 47 46 46 45 46 45 47 46 46 46 47 46 45 44 44 45 39 40 42 41 41 44 47 49 49 50 48 51 50 51 51 53 49 49 49 50 49 50 52 53 53 52 51 51 51 51 53 55 54 53 53 52 50 50 51 51 51 49 48 49 50 50 49 49 50 51 51 51 51 50 50 51
49 47 47 46 45 46 47 46 47 47 46 47 46 45 45 44 45 42 42 42 42 43 40 45 46 47 45 49 47 48 48 49 49 50 51 51 49 50 49 49 51 53 52 51 51 51 51 50 50 50 49 48 48 49 49 48 47 49 48 45 45 49 49 50 49 48 49 49 50 50 50 49 49 50
47 47 48 47 46 49 47 46 46 47 46 47 47 46 45 45 43 44 43 41 41 41 41 41 45 45 45 45 48 50 49 48 47 48 49 50 51 51 50 49 50 52 52 51 51 51 51 51 50 49 49 49 48 48 49 48 47 46 47 47 48 48 48 47 47 47 48 49 49 49 49 49 49 50
48 48 47 46 46 46 46 45 46 45 45 45 46 45 44 45 44 44 44 44 43 40 44 42 45 46 44 45 46 50 50 49 47 46 48 49 50 49 51 50 50 53 52 52 51 51 51 50 50 49 49 50 50 49 48 48 47 46 47 47 47 47 47 46 46 45 46 46 47 47 48 48 49 50
49 49 49 47 46 45 45 44 45 46 45 44 45 44 43 44 44 45 45 43 42 40 41 42 40 42 45 46 44 46 47 48 48 48 46 47 48 49 51 51 52 53 52 52 52 51 51 50 50 50 49 50 50 49 49 49 48 47 47 47 47 47 47 46 46 46 45 45 45 47 48 47 48 49
50 50 49 47 46 46 46 44 43 44 43 44 43 42 42 42 43 42 42 42 42 41 41 42 43 41 44 43 42 45 45 44 45 48 49 48 48 49 49 51 52 51 51 49 50 51 50 50 50 50 50 49 49 49 49 50 49 48 47 47 47 47 47 46 46 45 45 45 45 45 46 46 46 48
49 48 47 46 47 47 45 44 43 43 43 44 42 42 41 41 42 42 41 42 41 40 40 40 40 41 43 42 43 44 44 43 44 42 44 46 50 49 48 47 51 51 49 50 51 51 51 51 51 50 48 49 50 50 50 50 50 49 48 47 46 47 46 46 46 45 45 45 44 44 44 44 45 47
48 47 46 46 46 47 46 45 42 44 43 42 41 40 41 41 41 41 40 40 40 40 40 39 38 39 39 41 39 41 42 43 43 44 42 42 44 46 47 47 46 48 48 47 49 51 50 50 50 49 49 50 50 51 50 50 50 50 48 46 46 46 46 46 46 45 45 45 44 44 44 43 44 45
47 46 46 46 46 50 51 51 49 48 48 44 43 41 41 41 41 40 40 40 39 39 40 39 38 38 40 39 39 40 37 40 40 43 41 42 44 44 44 47 49 48 46 47 48 49 49 47 48 46 46 48 50 49 50 50 50 49 47 46 46 46 46 46 45 45 45 44 44 44 44 44 44 43
46 45 46 50 57 56 54 52 49 48 49 50 47 44 43 43 41 39 40 41 41 41 39 39 38 38 39 38 38 38 38 41 42 43 42 41 42 42 42 45 47 49 45 46 46 48 50 47 46 46 46 48 48 46 47 47 48 48 45 45 46 46 46 46 45 45 45 44 44 44 44 44 44 43
46 44 46 48 54 54 53 48 47 46 47 47 47 48 49 49 45 42 42 41 41 41 40 39 38 38 37 41 41 40 42 42 41 41 42 41 41 38 37 38 44 49 47 45 43 46 50 45 45 46 46 47 46 47 48 50 49 48 45 45 46 46 46 46 45 45 44 44 44 44 44 44 44 43
47 46 46 46 48 46 46 45 44 46 46 44 44 44 43 44 44 45 44 44 42 40 41 39 39 38 39 39 42 40 41 42 43 44 42 41 38 38 37 37 39 48 46 43 41 43 49 46 45 44 48 48 46 48 49 49 49 48 46 45 45 45 46 45 45 44 44 43 43 43 43 43 43 43
47 47 46 46 46 49 56 51 44 45 46 46 44 44 45 46 44 41 40 44 45 40 42 41 38 38 38 40 42 43 44 43 42 42 43 42 40 37 37 39 39 47 46 43 41 42 47 46 45 43 47 47 47 48 49 49 48 48 46 45 45 45 45 45 45 44 43 43 43 43 43 43 42 42
48 47 47 45 46 47 50 47 46 46 46 46 46 45 45 45 47 45 43 40 42 44 43 41 41 42 41 43 43 47 45 43 43 41 42 42 40 40 41 42 42 46 46 41 38 38 46 48 43 43 47 47 47 47 48 48 48 48 47 45 45 45 45 45 45 44 44 43 43 43 43 42 42 42
47 46 46 46 47 47 48 48 48 46 46 46 46 46 46 45 45 45 44 44 43 43 43 42 43 44 43 43 44 45 45 44 45 43 42 41 40 40 40 41 42 44 47 43 41 40 45 46 42 45 47 46 46 48 47 48 48 49 48 45 45 45 45 45 44 44 44 43 43 43 42 42 42 41
48 48 49 49 49 48 49 50 46 48 48 48 47 46 45 45 45 44 48 45 45 47 44 43 43 43 45 45 46 46 46 44 43 42 40 39 37 38 39 40 42 42 47 45 42 38 42 45 41 45 47 45 45 47 46 48 49 49 48 45 45 45 45 45 45 44 44 43 43 43 42 42 41 42
49 49 50 50 50 49 49 48 43 43 47 47 47 46 44 44 44 43 45 45 43 43 43 43 42 42 42 42 42 42 41 42 41 39 41 42 39 39 38 41 41 43 44 39 40 40 39 44 40 43 45 45 43 44 45 47 49 48 47 45 45 45 45 45 45 44 44 43 43 43 42 42 41 42
50 51 55 53 51 50 50 45 42 42 47 48 46 44 44 45 44 44 43 44 44 45 43 42 42 42 42 42 42 44 44 43 43 43 43 43 40 42 39 37 39 40 42 40 42 42 40 43 40 39 42 42 44 45 45 47 48 48 46 45 45 45 45 45 45 44 44 44 43 43 42 42 42 41
49 51 55 55 52 52 49 43 42 41 46 45 43 45 45 43 41 41 41 42 41 40 42 42 44 44 46 48 46 46 45 44 45 41 44 41 42 41 39 40 37 38 41 42 43 41 42 42 42 39 37 37 42 44 46 47 47 45 42 44 44 45 45 45 45 44 44 43 43 43 42 42 42 41
48 50 51 51 45 45 44 42 41 41 44 46 45 45 45 43 42 42 41 43 42 41 42 41 43 44 44 45 45 43 42 44 47 43 42 41 42 41 39 41 38 37 35 39 43 40 38 38 42 42 38 33 38 45 45 46 46 45 43 44 43 44 44 44 44 44 44 44 43 43 42 42 42 40
47 48 49 50 46 42 43 41 41 42 42 44 46 46 46 46 44 42 40 41 46 42 42 42 43 44 44 44 44 42 41 42 43 44 42 43 42 42 41 39 40 40 40 44 44 41 39 39 40 40 39 37 38 38 43 44 46 45 45 43 43 43 40 41 43 44 44 44 43 43 42 42 42 41
46 47 48 49 47 42 42 41 41 41 42 42 47 46 43 40 39 43 44 42 42 42 43 42 43 43 43 43 44 44 44 43 45 44 42 42 40 41 43 43 41 41 41 47 44 41 39 40 38 39 38 35 39 40 37 41 44 46 45 46 45 42 39 39 40 42 43 43 43 43 42 42 42 42
46 46 48 50 47 40 41 41 41 42 41 42 46 41 39 40 38 40 42 41 42 42 41 41 42 41 42 42 43 43 43 45 44 44 43 43 42 43 43 42 43 44 46 45 44 43 41 39 40 38 38 37 36 39 40 38 41 45 45 46 45 44 40 37 39 40 42 42 43 43 43 42 41 42
47 46 46 48 44 41 40 40 41 41 41 44 41 39 39 39 39 41 40 40 41 41 41 41 40 40 40 41 41 43 45 45 45 45 43 44 43 44 44 44 44 44 43 42 43 42 41 39 42 40 37 35 35 35 36 41 41 40 40 44 44 45 42 37 39 40 41 42 42 42 41 40 42 42
44 43 42 41 41 40 40 40 40 40 40 41 40 39 39 42 40 41 41 41 41 41 41 41 40 39 40 42 44 45 44 43 42 40 44 43 44 44 44 44 44 42 44 45 44 43 42 41 41 41 40 37 37 39 35 37 37 40 41 39 41 44 42 39 39 38 40 41 41 41 40 39 39 41
40 38 39 39 38 39 40 42 42 42 42 40 39 38 40 42 40 40 39 40 41 41 40 39 40 40 40 40 43 42 41 41 41 41 41 42 46 46 44 46 49 48 45 43 43 43 42 41 40 39 41 42 39 39 37 36 38 41 41 38 38 41 39 42 39 39 39 38 40 42 42 41 40 40
40 39 39 39 39 41 41 41 42 42 42 40 40 40 40 40 40 40 39 41 41 41 40 40 41 41 41 41 41 43 42 42 43 40 42 41 45 45 41 41 44 45 48 47 47 44 42 42 41 41 39 41 41 42 40 36 37 38 42 42 39 35 40 41 40 39 38 37 39 42 42 43 42 42
43 39 39 39 40 40 41 42 41 41 42 41 41 42 42 42 41 42 43 43 39 40 41 42 41 41 41 42 42 42 43 42 42 40 43 43 44 42 41 42 42 41 42 46 47 48 46 43 42 41 40 37 38 41 40 37 37 36 39 42 40 40 40 38 38 39 37 36 37 37 39 41 41 41
39 37 37 37 37 37 38 39 41 42 42 42 42 42 43 43 42 41 39 41 42 43 40 41 42 42 40 41 40 40 40 42 43 41 42 40 42 41 39 41 41 39 39 42 44 45 46 45 44 41 41 39 38 39 35 37 41 39 37 39 37 39 42 41 36 36 35 37 37 36 37 39 40 41
39 38 37 37 36 38 38 39 38 40 42 42 41 41 40 42 42 40 41 43 44 43 41 41 41 41 40 41 41 40 40 42 40 40 42 41 43 42 40 41 40 39 37 39 41 42 42 43 43 45 45 43 43 40 41 40 37 40 39 37 34 37 41 40 40 37 34 32 32 35 36 36 38 39
38 36 37 34 36 35 39 37 38 37 38 38 37 39 39 42 43 41 42 43 41 40 38 38 40 40 39 40 41 40 41 42 40 42 40 39 40 40 39 38 39 40 40 40 41 41 38 39 38 40 42 42 42 44 41 39 39 40 40 40 37 36 39 40 38 38 35 33 31 34 36 37 37 38
35 35 36 35 36 37 38 37 36 38 39 38 39 38 37 39 39 40 41 42 43 39 39 39 38 37 38 40 41 40 40 36 38 41 39 40 39 39 38 38 39 39 38 39 41 42 38 39 36 36 35 36 35 35 42 44 43 39 37 37 39 37 38 38 39 38 37 36 33 33 33 34 35 37
34 35 36 37 38 38 38 40 40 40 41 41 41 42 39 39 39 42 44 40 41 39 41 39 37 38 38 37 36 36 35 36 37 38 36 37 37 37 36 37 36 38 38 41 41 40 37 37 37 35 34 35 34 35 38 39 42 42 38 36 38 39 36 35 37 39 40 36 35 33 32 32 34 36
36 35 36 37 38 40 41 42 40 39 41 42 43 42 43 44 44 44 45 41 40 36 37 38 39 38 38 36 37 37 37 35 35 37 36 35 35 35 35 37 37 38 40 40 40 39 35 35 37 35 36 31 33 35 36 39 38 43 39 38 37 38 36 35 37 37 38 38 36 34 33 33 37 36
37 36 37 37 39 41 41 41 40 40 42 43 42 42 43 43 43 42 41 41 42 41 40 39 39 38 39 38 37 37 37 36 36 36 37 36 37 36 36 36 36 38 36 38 39 39 37 36 39 38 36 36 34 37 35 33 37 42 43 43 37 36 37 35 35 36 36 37 38 36 35 34 36 37
38 38 38 39 40 42 43 44 43 44 44 44 44 45 43 42 41 41 42 40 40 41 39 39 39 38 37 36 36 35 36 39 39 37 36 36 35 35 35 35 35 36 35 35 36 38 38 39 40 39 38 40 39 39 35 35 34 34 37 43 43 41 36 35 36 35 37 36 32 34 38 38 40 37
37 38 39 40 42 43 43 43 43 43 44 45 45 42 43 42 40 40 40 39 37 37 37 38 37 37 38 37 37 38 38 36 35 35 36 35 35 35 35 34 34 34 35 36 36 36 39 43 41 37 36 37 36 35 35 36 39 40 40 41 43 43 42 41 35 33 34 35 32 31 33 34 32 33
40 40 42 42 43 43 42 41 40 39 40 41 41 42 42 41 39 40 38 37 39 38 37 37 36 36 37 37 37 36 38 38 38 37 36 35 35 35 35 34 35 35 34 36 39 41 44 42 38 38 38 34 35 37 36 35 35 37 38 38 40 42 43 43 42 41 37 34 31 36 37 36 30 35
39 41 43 44 43 43 43 44 43 42 40 39 40 40 38 38 38 38 37 39 39 37 37 36 36 36 38 37 37 37 38 38 37 37 37 35 36 36 37 37 36 37 36 37 38 37 36 38 37 35 36 35 34 37 36 36 34 33 35 37 39 39 40 42 42 42 41 41 40 38 36 32 31 32
41 41 44 45 44 43 44 42 41 40 41 41 41 39 39 38 38 38 38 39 39 38 36 36 36 36 37 37 37 37 37 39 38 37 37 37 36 36 36 37 36 36 36 35 36 37 36 36 35 36 35 38 34 34 35 34 35 34 34 34 35 36 38 39 39 41 41 42 42 40 39 38 39 40
42 43 42 40 40 41 40 41 39 41 42 41 40 40 39 38 38 40 39 38 37 36 36 36 36 36 36 36 37 38 40 39 37 36 36 36 36 36 35 36 36 36 36 36 35 36 36 35 36 34 33 34 33 33 34 33 33 33 33 34 36 36 35 35 37 38 37 38 42 41 40 40 39 39
MSLP
1021.73 1021.81 1021.77 1021.85 1022.01 1022.09 1022.17 1022.29 1022.41 1022.53 1022.61 1022.61 1022.53 1022.33 1022.05 1022.09 1022.49 1023.17 1023.37 1023.85 1023.77 1023.61 1023.81 1023.61 1023.33 1023.29 1023.37 1023.41 1023.45 1023.49 1023.45 1023.33 1023.25 1023.21 1023.13 1023.01 1022.77 1022.49 1022.21 1021.97 1021.73 1021.49 1021.25 1021.01 1020.93 1020.77 1020.45 1020.33 1020.13 1019.81 1019.49 1019.17 1018.85 1018.61 1018.41 1018.13 1017.85 1017.53 1017.25 1017.01 1016.77 1016.45 1016.13 1015.81 1015.41 1014.85 1014.41 1013.89 1013.37 1013.01 1012.73 1012.49 1012.29 1012.09
1021.69 1021.81 1021.93 1021.97 1021.97 1022.09 1022.05 1022.13 1022.29 1022.41 1022.45 1022.45 1022.49 1022.69 1022.85 1022.53 1022.25 1022.85 1023.09 1023.93 1024.37 1023.89 1023.77 1023.57 1023.53 1023.37 1023.33 1023.49 1023.53 1023.61 1023.53 1023.37 1023.21 1023.21 1023.17 1023.01 1022.77 1022.45 1022.25 1021.97 1021.77 1021.53 1021.29 1021.01 1020.81 1020.69 1020.45 1020.25 1020.01 1019.73 1019.45 1019.09 1018.77 1018.49 1018.21 1017.97 1017.69 1017.41 1017.17 1016.97 1016.77 1016.41 1016.01 1015.65 1015.17 1014.61 1014.05 1013.65 1013.25 1012.85 1012.53 1012.29 1012.05 1011.85
1021.73 1021.81 1021.93 1022.05 1022.05 1022.05 1022.09 1022.13 1022.21 1022.33 1022.33 1022.41 1022.61 1022.85 1022.97 1023.01 1023.01 1023.13 1023.29 1023.61 1024.33 1024.37 1023.69 1023.57 1023.53 1023.61 1023.41 1023.53 1023.61 1023.61 1023.53 1023.41 1023.25 1023.21 1023.17 1023.01 1022.73 1022.49 1022.25 1022.01 1021.77 1021.57 1021.29 1021.05 1020.73 1020.57 1020.41 1020.17 1019.93 1019.65 1019.37 1019.01 1018.65 1018.33 1018.05 1017.77 1017.53 1017.29 1017.09 1016.97 1016.69 1016.33 1015.89 1015.45 1014.93 1014.41 1013.93 1013.49 1013.09 1012.77 1012.45 1012.13 1011.85 1011.65
1021.77 1021.89 1021.93 1022.01 1022.05 1022.13 1022.09 1022.13 1022.21 1022.37 1022.57 1022.49 1022.65 1022.85 1022.97 1023.21 1023.25 1023.29 1023.57 1023.57 1023.69 1023.97 1023.69 1023.65 1023.49 1023.45 1023.45 1023.61 1023.65 1023.65 1023.53 1023.45 1023.33 1023.25 1023.17 1022.97 1022.77 1022.57 1022.37 1022.05 1021.77 1021.53 1021.29 1021.01 1020.77 1020.53 1020.37 1020.09 1019.81 1019.53 1019.25 1018.93 1018.57 1018.21 1017.93 1017.61 1017.41 1017.25 1017.05 1016.89 1016.65 1016.25 1015.73 1015.25 1014.73 1014.29 1013.81 1013.37 1012.93 1012.61 1012.33 1012.05 1011.73 1011.45
1021.85 1021.93 1021.93 1022.01 1022.17 1022.25 1022.17 1022.21 1022.17 1022.29 1022.49 1022.69 1022.81 1022.97 1023.01 1023.17 1023.21 1023.17 1023.49 1023.65 1023.77 1023.77 1024.21 1023.81 1023.57 1023.49 1023.53 1023.45 1023.85 1023.69 1023.65 1023.45 1023.33 1023.17 1023.09 1023.01 1022.85 1022.61 1022.41 1022.13 1021.81 1021.53 1021.25 1021.01 1020.77 1020.49 1020.29 1020.01 1019.69 1019.41 1019.13 1018.81 1018.49 1018.13 1017.81 1017.53 1017.33 1017.17 1016.97 1016.81 1016.57 1016.13 1015.61 1015.09 1014.61 1014.21 1013.69 1013.17 1012.73 1012.41 1012.17 1011.89 1011.61 1011.33
1021.93 1021.97 1021.93 1022.05 1022.17 1022.21 1022.25 1022.29 1022.33 1022.41 1022.57 1022.73 1022.89 1023.13 1023.13 1023.21 1023.33 1023.33 1023.33 1023.81 1023.89 1023.93 1023.81 1023.57 1023.69 1023.41 1023.61 1023.53 1023.93 1023.89 1023.77 1023.57 1023.37 1023.17 1023.01 1022.93 1022.85 1022.69 1022.45 1022.21 1021.81 1021.49 1021.25 1021.01 1020.73 1020.45 1020.17 1019.89 1019.57 1019.29 1019.01 1018.73 1018.41 1018.05 1017.69 1017.41 1017.25 1017.13 1016.93 1016.73 1016.41 1015.97 1015.45 1014.93 1014.49 1014.05 1013.57 1013.09 1012.65 1012.25 1011.93 1011.69 1011.45 1011.13
1021.89 1021.85 1021.89 1021.97 1022.13 1022.25 1022.21 1022.29 1022.33 1022.45 1022.69 1022.93 1023.01 1023.29 1023.41 1023.45 1023.61 1023.57 1023.45 1023.65 1023.93 1024.09 1024.05 1024.17 1023.77 1023.77 1023.73 1023.77 1023.93 1023.89 1023.77 1023.61 1023.57 1023.33 1023.13 1023.01 1022.85 1022.65 1022.45 1022.21 1021.89 1021.49 1021.17 1020.93 1020.73 1020.45 1020.09 1019.73 1019.41 1019.13 1018.89 1018.61 1018.29 1017.97 1017.61 1017.25 1017.13 1017.05 1016.81 1016.53 1016.21 1015.81 1015.29 1014.77 1014.33 1013.89 1013.41 1012.97 1012.57 1012.17 1011.81 1011.49 1011.17 1010.85
1021.69 1021.69 1021.81 1021.93 1022.01 1022.13 1022.21 1022.29 1022.33 1022.53 1022.73 1022.93 1023.17 1023.29 1023.53 1023.45 1023.61 1023.93 1023.89 1023.77 1023.85 1024.21 1024.29 1024.21 1024.09 1024.09 1024.01 1023.93 1023.93 1023.93 1023.73 1023.57 1023.45 1023.37 1023.25 1022.89 1022.69 1022.57 1022.37 1022.13 1021.85 1021.45 1021.17 1020.93 1020.69 1020.33 1019.97 1019.61 1019.29 1018.97 1018.73 1018.45 1018.17 1017.89 1017.53 1017.13 1017.01 1016.89 1016.61 1016.33 1016.01 1015.61 1015.09 1014.53 1014.09 1013.69 1013.25 1012.89 1012.49 1012.09 1011.65 1011.29 1010.93 1010.53
1021.61 1021.69 1021.73 1021.93 1022.09 1022.17 1022.25 1022.37 1022.41 1022.57 1022.69 1023.01 1023.17 1023.41 1023.61 1023.53 1023.69 1023.97 1024.09 1024.09 1024.09 1024.21 1024.21 1024.41 1024.41 1024.41 1024.17 1024.09 1023.89 1023.97 1023.97 1023.65 1023.33 1023.21 1023.25 1023.13 1022.77 1022.37 1022.21 1022.05 1021.77 1021.53 1021.17 1020.81 1020.49 1020.17 1019.85 1019.49 1019.17 1018.89 1018.65 1018.33 1018.05 1017.77 1017.37 1016.97 1016.81 1016.65 1016.41 1016.13 1015.89 1015.45 1014.89 1014.37 1013.85 1013.41 1013.05 1012.69 1012.33 1011.93 1011.49 1011.17 1010.81 1010.45
1021.53 1021.61 1021.73 1021.97 1022.09 1022.17 1022.21 1022.45 1022.69 1022.73 1022.89 1023.09 1023.25 1023.41 1023.57 1023.65 1023.73 1023.89 1024.25 1024.41 1024.37 1024.25 1024.53 1024.65 1024.57 1024.49 1024.37 1024.13 1024.01 1023.93 1024.21 1024.17 1023.69 1023.21 1022.89 1022.81 1022.77 1022.61 1022.13 1021.81 1021.65 1021.41 1021.17 1020.89 1020.49 1020.13 1019.81 1019.45 1019.13 1018.81 1018.53 1018.29 1018.01 1017.65 1017.21 1016.81 1016.53 1016.37 1016.17 1015.97 1015.69 1015.29 1014.73 1014.17 1013.65 1013.17 1012.81 1012.41 1012.09 1011.73 1011.41 1011.05 1010.69 1010.25
1021.57 1021.69 1021.85 1022.09 1022.21 1022.25 1022.37 1022.49 1022.65 1022.89 1023.05 1023.21 1023.45 1023.57 1023.65 1023.73 1023.77 1023.97 1024.13 1024.25 1024.29 1024.45 1024.45 1024.69 1024.93 1024.77 1024.61 1024.69 1024.13 1023.93 1024.21 1024.17 1024.13 1023.89 1023.61 1023.21 1022.73 1022.69 1022.69 1022.09 1021.33 1021.13 1021.05 1020.69 1020.33 1020.05 1019.77 1019.37 1019.05 1018.73 1018.49 1018.21 1017.89 1017.53 1017.05 1016.65 1016.33 1016.13 1015.89 1015.77 1015.61 1015.09 1014.53 1013.97 1013.49 1012.97 1012.57 1012.17 1011.85 1011.53 1011.21 1010.85 1010.49 1010.09
1021.73 1021.89 1022.01 1022.17 1022.29 1022.33 1022.49 1022.57 1022.81 1022.85 1023.05 1023.25 1023.41 1023.69 1023.65 1023.73 1023.85 1024.01 1024.13 1024.21 1024.41 1024.45 1024.49 1024.65 1024.73 1025.01 1024.69 1024.33 1024.53 1024.45 1024.25 1023.93 1023.89 1024.09 1024.21 1023.89 1023.37 1022.97 1022.69 1022.33 1022.09 1021.33 1021.05 1020.89 1020.45 1019.89 1019.61 1019.25 1018.89 1018.65 1018.45 1018.13 1017.81 1017.37 1016.93 1016.53 1016.17 1015.89 1015.73 1015.69 1015.41 1014.89 1014.37 1013.81 1013.29 1012.81 1012.37 1011.97 1011.61 1011.29 1010.93 1010.57 1010.21 1009.85
1021.89 1022.05 1022.13 1022.25 1022.41 1022.41 1022.49 1022.61 1022.77 1022.85 1022.97 1023.05 1023.29 1023.57 1023.57 1023.65 1023.81 1024.05 1024.17 1024.29 1024.25 1024.37 1024.17 1024.29 1024.93 1024.53 1024.25 1024.29 1024.49 1024.29 1024.17 1024.17 1024.37 1024.17 1024.21 1023.85 1023.53 1023.45 1023.13 1022.17 1021.57 1021.37 1021.21 1020.73 1020.45 1019.93 1019.57 1019.33 1018.93 1018.81 1018.57 1018.09 1017.65 1017.29 1016.81 1016.41 1016.09 1015.77 1015.65 1015.61 1015.21 1014.73 1014.25 1013.65 1013.13 1012.65 1012.21 1011.77 1011.37 1010.97 1010.61 1010.25 1009.89 1009.49
1022.01 1022.09 1022.21 1022.29 1022.29 1022.41 1022.53 1022.69 1022.85 1022.97 1023.01 1023.09 1023.17 1023.37 1023.45 1023.57 1023.73 1023.85 1023.93 1024.05 1024.17 1024.09 1024.05 1024.33 1024.41 1024.25 1024.21 1024.21 1024.37 1024.61 1024.33 1024.45 1024.33 1024.09 1023.93 1023.89 1023.57 1023.49 1023.17 1022.45 1021.45 1021.17 1021.13 1020.81 1020.41 1019.93 1019.45 1019.37 1019.05 1018.81 1018.57 1017.97 1017.57 1017.25 1016.77 1016.29 1015.97 1015.69 1015.57 1015.41 1015.01 1014.61 1014.17 1013.61 1013.05 1012.49 1012.05 1011.61 1011.17 1010.77 1010.33 1009.93 1009.57 1009.17
1022.13 1022.33 1022.33 1022.37 1022.49 1022.61 1022.77 1022.93 1023.05 1023.09 1023.09 1023.21 1023.33 1023.41 1023.45 1023.49 1023.49 1023.73 1023.93 1024.05 1024.13 1024.09 1024.17 1024.49 1024.45 1024.49 1024.37 1024.01 1024.33 1024.53 1024.45 1024.25 1024.13 1024.05 1023.97 1023.93 1023.73 1023.65 1023.49 1022.81 1021.85 1020.97 1021.09 1020.93 1020.77 1020.05 1019.33 1019.29 1019.17 1018.81 1018.45 1017.89 1017.53 1017.13 1016.69 1016.13 1015.81 1015.57 1015.45 1015.25 1014.89 1014.49 1014.05 1013.57 1013.05 1012.49 1011.97 1011.45 1011.01 1010.57 1010.09 1009.61 1009.17 1008.77
1022.37 1022.53 1022.61 1022.77 1022.81 1022.81 1022.85 1023.01 1023.09 1023.13 1023.13 1023.21 1023.37 1023.49 1023.61 1023.69 1023.85 1024.01 1023.97 1024.01 1024.13 1024.13 1024.09 1024.13 1024.17 1024.37 1024.25 1024.13 1024.13 1024.17 1024.13 1023.97 1023.93 1023.85 1023.85 1023.69 1023.61 1023.49 1023.33 1022.97 1022.53 1021.13 1021.09 1021.13 1020.93 1020.25 1019.29 1019.17 1019.13 1018.93 1018.25 1017.77 1017.45 1017.01 1016.53 1016.09 1015.69 1015.45 1015.29 1015.09 1014.73 1014.37 1013.97 1013.49 1012.97 1012.49 1012.01 1011.53 1011.05 1010.53 1010.01 1009.49 1008.97 1008.45
1022.49 1022.69 1022.81 1022.93 1022.93 1022.85 1022.81 1022.97 1023.09 1023.01 1023.01 1023.13 1023.17 1023.29 1023.21 1023.13 1023.33 1023.73 1024.21 1024.33 1024.17 1024.17 1024.17 1024.09 1024.05 1024.17 1024.17 1024.09 1023.81 1023.89 1023.85 1024.01 1024.05 1023.77 1023.61 1023.37 1023.37 1023.49 1023.25 1022.73 1022.25 1021.17 1021.01 1021.13 1020.89 1020.37 1019.37 1019.13 1019.09 1019.01 1018.13 1017.73 1017.37 1016.89 1016.41 1016.01 1015.65 1015.37 1015.17 1014.93 1014.65 1014.21 1013.81 1013.37 1012.89 1012.41 1011.97 1011.53 1011.05 1010.57 1010.05 1009.49 1008.89 1008.25
1022.49 1022.61 1022.77 1023.05 1023.13 1023.13 1023.05 1023.29 1023.57 1023.49 1023.21 1023.17 1023.09 1023.09 1023.01 1022.97 1023.21 1023.53 1023.89 1024.21 1024.37 1024.37 1024.09 1024.05 1023.89 1023.77 1024.25 1023.93 1023.81 1023.61 1023.89 1023.97 1023.85 1023.77 1023.41 1023.17 1023.25 1023.05 1022.69 1022.49 1022.29 1021.33 1021.05 1021.17 1021.09 1020.41 1019.37 1018.93 1019.17 1018.97 1018.13 1017.65 1017.29 1016.85 1016.37 1016.01 1015.61 1015.25 1015.01 1014.81 1014.53 1014.09 1013.69 1013.29 1012.81 1012.37 1011.93 1011.49 1011.05 1010.53 1010.01 1009.41 1008.81 1008.13
1021.85 1022.01 1022.09 1022.61 1022.81 1022.85 1022.89 1023.01 1023.45 1023.49 1023.29 1023.13 1023.13 1023.17 1022.81 1022.77 1023.05 1023.45 1023.81 1024.09 1024.29 1024.33 1024.29 1024.01 1023.85 1023.69 1024.05 1024.01 1023.81 1023.73 1023.69 1023.73 1023.57 1023.53 1023.29 1023.17 1023.25 1023.17 1022.97 1022.45 1021.77 1021.29 1020.81 1020.89 1020.73 1020.41 1019.61 1019.09 1019.21 1018.73 1018.09 1017.65 1017.25 1016.77 1016.37 1015.97 1015.53 1015.13 1014.85 1014.69 1014.41 1013.97 1013.57 1013.17 1012.77 1012.33 1011.93 1011.49 1011.01 1010.49 1009.97 1009.37 1008.69 1008.05
1021.25 1021.41 1021.57 1021.73 1021.93 1021.93 1021.81 1021.89 1022.45 1022.89 1023.13 1023.09 1023.05 1022.93 1022.73 1022.77 1023.17 1023.33 1023.61 1023.73 1023.81 1023.85 1023.85 1023.81 1023.69 1023.65 1023.65 1023.65 1023.61 1023.57 1023.49 1023.41 1023.37 1023.37 1023.37 1023.33 1023.29 1022.97 1022.37 1022.01 1021.69 1021.45 1020.61 1020.65 1020.57 1020.49 1019.93 1019.33 1019.33 1018.57 1017.97 1017.61 1017.29 1016.73 1016.41 1015.93 1015.49 1015.05 1014.77 1014.61 1014.29 1013.85 1013.45 1013.09 1012.69 1012.29 1011.89 1011.45 1010.97 1010.49 1009.97 1009.41 1008.73 1008.05
1021.33 1021.45 1021.37 1021.45 1021.65 1021.65 1021.53 1021.61 1022.09 1022.69 1022.97 1023.05 1023.05 1022.85 1022.61 1022.85 1022.97 1023.09 1023.45 1023.57 1023.57 1023.61 1023.61 1023.61 1023.61 1023.53 1023.49 1023.41 1023.37 1023.25 1023.13 1023.25 1023.05 1023.01 1022.37 1022.01 1022.57 1022.29 1022.21 1021.89 1021.69 1021.17 1020.85 1020.61 1020.57 1020.61 1020.13 1019.29 1019.33 1018.81 1017.97 1017.57 1017.29 1016.77 1016.33 1015.93 1015.37 1014.97 1014.65 1014.49 1014.21 1013.77 1013.37 1012.97 1012.57 1012.21 1011.85 1011.41 1010.93 1010.45 1009.93 1009.41 1008.77 1008.13
1021.29 1021.29 1021.09 1021.05 1021.45 1021.65 1021.41 1021.53 1022.13 1022.57 1022.73 1022.89 1022.97 1022.73 1022.57 1022.69 1022.77 1023.05 1023.33 1023.41 1023.45 1023.45 1023.41 1023.37 1023.33 1023.25 1023.13 1023.21 1023.13 1022.81 1022.41 1022.37 1022.73 1022.45 1022.05 1022.05 1022.29 1021.89 1022.09 1022.13 1021.89 1021.57 1020.97 1020.49 1020.65 1020.21 1019.73 1019.45 1019.37 1019.21 1018.37 1017.61 1016.89 1016.65 1016.33 1015.89 1015.37 1014.97 1014.69 1014.37 1014.13 1013.65 1013.25 1012.89 1012.49 1012.13 1011.77 1011.41 1010.97 1010.53 1010.01 1009.49 1008.93 1008.25
1021.13 1021.13 1020.89 1020.81 1021.29 1021.49 1021.37 1021.53 1021.97 1022.37 1022.49 1022.57 1022.61 1022.37 1022.41 1022.53 1022.69 1022.93 1023.21 1023.17 1023.09 1023.13 1023.09 1023.25 1023.33 1023.01 1022.81 1022.53 1022.49 1022.37 1022.17 1022.13 1022.41 1022.45 1022.01 1022.01 1021.93 1021.81 1021.85 1022.01 1022.01 1021.41 1020.53 1020.33 1020.53 1020.29 1019.65 1019.45 1019.09 1019.41 1018.93 1018.21 1017.13 1016.45 1016.21 1015.77 1015.33 1014.97 1014.77 1014.37 1014.01 1013.61 1013.21 1012.85 1012.49 1012.13 1011.77 1011.41 1011.05 1010.61 1010.17 1009.65 1009.09 1008.65
1020.93 1020.85 1020.89 1020.97 1021.13 1021.17 1021.25 1021.41 1021.73 1022.05 1022.21 1022.21 1022.33 1022.37 1022.29 1022.37 1022.29 1022.85 1023.05 1023.13 1023.21 1023.25 1023.25 1023.09 1023.09 1022.89 1022.77 1022.57 1022.41 1022.25 1022.05 1022.01 1022.21 1022.13 1021.97 1021.81 1021.81 1021.77 1021.73 1021.81 1022.09 1021.81 1021.09 1020.25 1020.49 1020.37 1019.77 1019.49 1019.21 1019.01 1019.17 1018.97 1017.77 1016.61 1016.17 1015.73 1015.29 1014.97 1014.73 1014.45 1014.01 1013.57 1013.21 1012.81 1012.45 1012.05 1011.69 1011.41 1011.09 1010.69 1010.25 1009.81 1009.37 1008.97
1020.61 1020.69 1020.73 1020.77 1020.93 1021.01 1021.09 1021.25 1021.53 1021.85 1021.97 1022.05 1022.13 1022.13 1022.05 1022.01 1022.13 1022.61 1022.61 1022.89 1023.09 1023.05 1023.01 1022.93 1022.81 1022.57 1022.41 1022.29 1022.33 1022.09 1022.01 1021.89 1021.77 1021.61 1021.61 1021.61 1021.69 1021.61 1021.49 1021.49 1021.41 1021.29 1020.81 1020.21 1020.37 1020.25 1019.89 1019.61 1019.37 1019.09 1018.65 1018.53 1018.05 1017.69 1016.49 1016.05 1015.33 1014.97 1014.65 1014.45 1014.05 1013.57 1013.37 1012.93 1012.57 1012.09 1011.61 1011.25 1010.93 1010.73 1010.41 1009.97 1009.61 1009.33
1020.49 1020.45 1020.53 1020.65 1020.69 1020.85 1020.97 1021.13 1021.45 1021.61 1021.69 1021.85 1022.01 1021.93 1022.01 1022.25 1022.33 1022.33 1022.41 1022.65 1022.85 1022.81 1022.77 1022.61 1022.37 1022.09 1021.97 1022.05 1021.97 1021.93 1021.77 1021.65 1021.65 1021.49 1021.41 1021.37 1021.41 1021.41 1021.41 1021.29 1021.21 1021.01 1020.45 1019.89 1020.05 1020.17 1020.05 1019.37 1019.41 1019.37 1018.85 1018.69 1017.93 1017.73 1017.29 1016.29 1015.49 1014.97 1014.69 1014.25 1013.97 1013.69 1013.49 1013.17 1012.73 1012.29 1011.89 1011.45 1010.93 1010.61 1010.45 1010.13 1009.77 1009.45
1020.13 1020.25 1020.37 1020.41 1020.53 1020.77 1020.89 1021.05 1021.25 1021.41 1021.57 1021.89 1021.89 1021.97 1022.09 1022.09 1022.17 1022.29 1022.33 1022.45 1022.49 1022.45 1022.49 1022.45 1022.09 1021.93 1022.01 1022.01 1021.97 1021.97 1021.65 1021.45 1021.45 1021.29 1021.17 1021.13 1021.09 1020.97 1021.01 1021.13 1021.01 1020.77 1020.33 1020.13 1020.05 1020.05 1019.85 1019.45 1019.21 1019.37 1019.05 1018.85 1018.57 1017.73 1017.17 1016.81 1015.89 1015.21 1014.77 1014.25 1013.93 1013.49 1013.41 1013.29 1012.93 1012.49 1012.05 1011.69 1011.25 1010.81 1010.37 1009.97 1009.73 1009.53
1019.89 1020.09 1020.21 1020.29 1020.45 1020.73 1020.85 1020.97 1021.13 1021.29 1021.61 1021.65 1021.65 1021.85 1021.85 1021.97 1022.09 1022.13 1022.25 1022.29 1022.25 1022.29 1022.25 1022.09 1021.93 1021.65 1021.93 1022.29 1022.13 1021.85 1021.57 1021.41 1021.25 1021.13 1021.01 1020.89 1020.77 1020.77 1020.73 1020.65 1020.57 1020.45 1020.25 1020.05 1019.85 1019.73 1019.61 1019.45 1019.05 1018.85 1018.97 1018.69 1018.41 1018.01 1017.73 1016.81 1016.33 1015.93 1015.61 1014.73 1014.09 1013.49 1013.29 1013.37 1013.05 1012.61 1012.21 1011.89 1011.45 1011.01 1010.65 1010.17 1009.65 1009.21
1019.89 1019.97 1020.13 1020.33 1020.49 1020.65 1020.85 1020.93 1021.13 1021.41 1021.53 1021.53 1021.57 1021.73 1021.85 1022.01 1022.09 1022.05 1022.09 1022.13 1022.29 1022.09 1021.81 1021.77 1022.01 1021.97 1021.73 1021.81 1021.81 1021.81 1021.77 1021.57 1021.29 1021.01 1020.77 1020.69 1020.49 1020.53 1020.61 1020.45 1020.17 1019.97 1019.81 1019.65 1019.57 1019.49 1019.45 1019.33 1019.13 1018.77 1018.49 1018.37 1018.25 1017.85 1017.73 1017.21 1016.73 1015.93 1015.61 1015.49 1014.45 1013.53 1013.37 1013.25 1013.21 1012.93 1012.45 1012.05 1011.73 1011.25 1011.01 1010.81 1010.37 1010.05
1019.93 1020.25 1020.37 1020.37 1020.45 1020.61 1020.89 1021.17 1021.41 1021.49 1021.45 1021.53 1021.69 1021.77 1021.93 1022.01 1021.97 1022.01 1022.05 1022.17 1022.13 1021.85 1021.81 1022.01 1021.73 1021.49 1021.69 1021.69 1021.69 1021.77 1021.73 1021.49 1020.77 1020.65 1020.57 1020.53 1020.25 1020.33 1020.41 1019.97 1019.57 1019.45 1019.45 1019.53 1019.45 1019.29 1019.13 1019.05 1018.97 1018.77 1018.41 1017.93 1017.97 1017.81 1017.45 1017.37 1016.53 1015.97 1015.61 1015.49 1015.49 1014.41 1013.41 1013.33 1013.25 1013.01 1012.69 1012.33 1011.93 1011.41 1011.05 1010.89 1010.73 1010.37
1020.05 1020.29 1020.37 1020.29 1020.33 1020.45 1020.61 1020.81 1020.93 1021.05 1021.33 1021.69 1021.81 1021.85 1021.97 1021.97 1021.93 1021.97 1021.97 1021.89 1021.85 1021.85 1021.93 1021.89 1021.89 1021.85 1021.77 1021.81 1021.77 1021.37 1021.21 1020.97 1020.53 1020.65 1020.65 1020.53 1020.29 1020.33 1020.61 1020.41 1019.93 1019.73 1019.41 1019.29 1019.13 1019.01 1018.89 1018.77 1018.77 1018.77 1018.49 1018.17 1017.69 1017.29 1017.17 1017.25 1016.89 1016.29 1015.61 1015.29 1015.29 1015.37 1014.29 1013.65 1013.25 1013.21 1012.97 1012.65 1012.21 1011.69 1011.21 1010.85 1010.61 1010.37
1019.97 1020.13 1020.33 1020.45 1020.57 1020.69 1020.89 1021.09 1021.21 1021.29 1021.37 1021.41 1021.45 1021.57 1021.69 1021.77 1021.85 1021.89 1021.93 1022.01 1022.01 1021.89 1021.85 1021.85 1021.85 1021.77 1021.69 1021.61 1021.45 1021.45 1021.25 1020.97 1020.57 1020.65 1020.53 1020.41 1020.13 1020.29 1020.45 1020.01 1019.77 1019.93 1019.73 1019.29 1019.01 1018.69 1018.61 1018.61 1018.57 1018.45 1018.45 1018.33 1018.09 1017.37 1017.05 1016.81 1016.57 1016.25 1015.93 1015.33 1015.25 1014.81 1014.33 1014.13 1013.77 1013.29 1013.17 1012.89 1012.29 1011.89 1011.49 1011.09 1010.73 1010.45
1020.09 1020.17 1020.29 1020.29 1020.49 1020.69 1020.89 1021.13 1021.09 1021.13 1021.17 1021.25 1021.33 1021.33 1021.41 1021.45 1021.57 1021.69 1021.81 1021.69 1021.53 1021.49 1021.69 1021.69 1021.61 1021.45 1021.41 1021.29 1021.29 1021.37 1021.25 1020.81 1020.29 1020.53 1020.29 1020.29 1020.21 1020.33 1020.33 1019.93 1019.89 1019.77 1019.69 1019.37 1019.13 1018.85 1018.53 1018.33 1018.25 1018.21 1018.05 1017.89 1017.81 1017.61 1017.33 1016.65 1015.93 1016.01 1016.01 1015.65 1015.49 1015.01 1014.29 1013.93 1013.93 1013.77 1013.45 1012.81 1012.45 1012.25 1011.69 1011.21 1010.97 1010.73
1019.81 1019.97 1020.05 1020.17 1020.17 1020.53 1020.93 1021.01 1021.01 1020.85 1020.89 1020.93 1021.05 1021.13 1021.17 1021.25 1021.33 1021.37 1021.45 1021.41 1021.25 1021.25 1021.33 1021.33 1021.41 1021.25 1021.17 1021.09 1020.97 1020.97 1020.73 1020.29 1020.09 1020.33 1020.33 1020.05 1020.41 1020.25 1020.01 1019.89 1019.65 1019.69 1019.85 1019.57 1019.29 1018.97 1018.69 1018.45 1018.37 1017.89 1017.65 1017.49 1017.25 1017.09 1016.85 1016.61 1016.25 1015.85 1015.81 1015.69 1015.53 1015.17 1014.49 1014.13 1013.73 1013.65 1013.69 1013.57 1013.33 1012.49 1011.77 1011.37 1011.05 1010.89
1019.81 1019.93 1019.97 1020.13 1020.29 1020.33 1020.57 1020.73 1020.77 1020.81 1020.77 1020.69 1020.73 1020.77 1020.89 1021.01 1021.05 1021.13 1021.21 1021.05 1021.01 1021.05 1021.09 1021.17 1021.21 1021.13 1021.13 1020.85 1020.65 1020.49 1020.17 1019.97 1019.81 1019.89 1020.13 1020.41 1020.37 1020.13 1020.09 1019.89 1019.69 1019.61 1019.57 1019.45 1019.17 1018.85 1018.85 1018.73 1018.65 1018.25 1017.73 1017.61 1017.37 1016.57 1016.41 1016.37 1016.05 1015.77 1015.61 1015.33 1015.25 1015.25 1014.73 1014.29 1014.13 1013.65 1013.45 1013.33 1013.25 1012.73 1012.09 1011.41 1011.13 1010.89
1019.77 1019.89 1019.93 1020.09 1020.17 1020.25 1020.33 1020.41 1020.57 1020.69 1020.61 1020.65 1020.65 1020.69 1020.81 1020.73 1020.81 1020.89 1020.73 1020.61 1020.73 1020.73 1020.85 1020.81 1020.77 1020.85 1020.81 1020.65 1020.37 1020.29 1020.05 1020.09 1020.05 1019.97 1019.73 1019.61 1019.73 1019.89 1020.09 1020.01 1019.93 1019.69 1019.69 1019.49 1019.13 1018.85 1018.97 1018.73 1018.85 1018.57 1018.33 1018.17 1018.09 1017.73 1016.37 1015.85 1015.97 1015.89 1015.85 1015.53 1015.25 1015.13 1014.81 1014.45 1014.13 1013.69 1013.25 1013.05 1013.13 1012.97 1012.49 1011.93 1011.41 1010.97
1019.65 1019.93 1019.97 1019.93 1020.01 1020.09 1019.97 1020.13 1020.25 1020.37 1020.45 1020.45 1020.49 1020.53 1020.53 1020.45 1020.37 1020.45 1020.29 1020.37 1020.49 1020.41 1020.29 1020.41 1020.37 1020.29 1020.25 1020.25 1020.29 1020.17 1020.17 1020.09 1019.81 1019.81 1019.73 1019.77 1020.01 1019.97 1019.81 1019.61 1019.53 1019.45 1019.33 1018.81 1018.97 1019.01 1019.17 1018.69 1018.57 1018.73 1018.49 1018.17 1018.17 1017.89 1017.29 1016.13 1015.49 1015.69 1015.73 1015.57 1015.33 1014.97 1015.05 1014.85 1014.37 1013.57 1013.13 1013.25 1012.85 1012.81 1012.81 1012.45 1011.45 1010.97
1019.41 1019.69 1019.81 1019.77 1019.77 1019.73 1019.73 1019.69 1019.85 1020.05 1020.13 1020.17 1020.17 1020.17 1020.21 1020.09 1020.01 1019.97 1019.97 1020.09 1019.97 1019.93 1019.97 1020.05 1019.97 1020.01 1020.01 1020.05 1019.93 1019.69 1019.69 1019.97 1020.05 1019.85 1019.57 1019.57 1019.53 1019.49 1019.69 1019.61 1019.33 1019.17 1019.05 1018.97 1018.93 1018.85 1019.05 1018.97 1018.45 1018.33 1018.45 1018.13 1018.01 1017.77 1017.17 1016.25 1016.01 1015.21 1015.41 1015.53 1015.53 1015.05 1015.05 1014.97 1014.41 1014.09 1013.45 1012.97 1012.93 1012.69 1012.61 1011.93 1011.25 1010.85
1019.17 1019.29 1019.37 1019.37 1019.41 1019.37 1019.37 1019.41 1019.49 1019.57 1019.65 1019.73 1019.81 1019.81 1019.77 1019.77 1019.73 1019.65 1019.61 1019.57 1019.57 1019.49 1019.49 1019.61 1019.61 1019.57 1019.45 1019.49 1019.45 1019.29 1019.09 1019.13 1019.25 1019.17 1019.29 1019.45 1019.69 1019.65 1019.41 1019.41 1019.21 1019.09 1019.33 1018.77 1018.73 1018.61 1018.65 1018.33 1018.05 1017.89 1018.01 1017.85 1017.57 1017.29 1017.29 1017.29 1016.33 1015.49 1015.01 1015.25 1015.57 1015.13 1014.85 1014.89 1014.73 1014.29 1013.85 1013.17 1012.53 1012.49 1012.13 1011.89 1011.41 1011.09
1018.69 1018.81 1018.93 1019.05 1019.01 1018.97 1018.89 1018.93 1019.09 1019.13 1019.25 1019.25 1019.37 1019.37 1019.37 1019.33 1019.29 1019.25 1019.25 1019.17 1019.13 1019.17 1019.33 1019.29 1019.09 1019.05 1019.05 1019.01 1018.89 1019.01 1019.05 1019.01 1019.05 1019.09 1019.21 1019.29 1019.41 1019.65 1019.45 1019.41 1019.37 1019.09 1019.01 1018.73 1018.53 1018.37 1018.21 1017.93 1017.65 1017.65 1017.65 1017.65 1017.45 1017.25 1017.37 1017.37 1017.05 1016.21 1015.61 1014.77 1014.97 1015.21 1015.01 1014.81 1014.65 1014.49 1013.73 1013.29 1013.41 1012.93 1011.97 1011.45 1010.81 1010.65
1018.65 1018.73 1018.65 1018.65 1018.65 1018.69 1018.65 1018.65 1018.73 1018.93 1019.05 1019.05 1019.05 1019.09 1019.09 1019.01 1019.01 1018.93 1018.81 1018.77 1018.89 1018.89 1018.81 1018.77 1018.77 1018.77 1018.53 1018.57 1018.69 1018.73 1018.69 1018.89 1019.13 1019.17 1019.21 1019.25 1019.25 1019.21 1019.13 1019.37 1018.89 1018.93 1018.73 1018.45 1018.49 1018.29 1017.77 1017.29 1017.53 1017.93 1017.85 1017.57 1017.45 1017.37 1016.93 1016.21 1015.85 1015.69 1015.53 1014.89 1014.29 1014.29 1014.61 1014.81 1014.61 1014.41 1014.17 1013.73 1013.57 1013.09 1012.53 1011.97 1011.69 1011.05
1018.09 1018.13 1018.09 1018.21 1018.21 1018.17 1018.29 1018.41 1018.53 1018.61 1018.69 1018.77 1018.77 1018.81 1018.85 1018.89 1018.81 1018.77 1018.85 1018.89 1018.93 1018.89 1018.85 1018.73 1018.61 1018.53 1018.41 1018.41 1018.45 1018.69 1018.61 1018.29 1018.33 1018.49 1018.73 1018.89 1018.69 1018.53 1018.61 1018.89 1018.25 1018.37 1018.77 1018.49 1017.93 1017.61 1017.41 1017.53 1017.73 1017.69 1017.53 1017.25 1016.65 1016.29 1016.29 1016.45 1016.33 1016.01 1015.77 1015.37 1014.81 1014.21 1013.93 1013.89 1014.09 1014.17 1014.09 1013.73 1013.37 1012.85 1012.29 1011.77 1011.85 1011.29
1017.73 1017.77 1017.73 1017.73 1017.89 1017.93 1017.97 1017.97 1018.01 1018.13 1018.21 1018.33 1018.49 1018.53 1018.53 1018.61 1018.65 1018.61 1018.49 1018.45 1018.57 1018.57 1018.45 1018.41 1018.57 1018.49 1018.21 1018.21 1018.25 1018.41 1018.25 1018.17 1018.29 1018.29 1018.33 1018.49 1018.57 1018.41 1018.13 1018.05 1018.21 1018.29 1018.45 1018.29 1018.05 1018.05 1017.89 1017.77 1017.73 1017.53 1017.09 1016.81 1016.57 1016.61 1016.37 1016.37 1016.61 1016.57 1016.13 1015.65 1015.13 1014.81 1014.21 1013.73 1013.65 1013.49 1013.45 1013.41 1013.37 1013.37 1013.41 1013.37 1013.21 1012.49
1017.33 1017.37 1017.33 1017.37 1017.53 1017.65 1017.73 1017.77 1017.81 1017.89 1017.93 1017.97 1017.97 1018.05 1018.17 1018.25 1018.25 1018.37 1018.45 1018.41 1018.29 1018.17 1018.13 1018.13 1018.21 1018.29 1018.09 1018.05 1018.17 1018.33 1018.29 1018.09 1018.13 1018.21 1018.13 1018.13 1018.29 1018.33 1018.25 1018.13 1018.17 1018.25 1018.33 1018.29 1017.89 1017.57 1017.61 1017.49 1017.41 1017.45 1017.01 1016.49 1016.69 1016.57 1016.41 1016.53 1016.41 1016.25 1016.29 1016.13 1015.65 1015.25 1014.73 1014.21 1013.65 1013.29 1013.17 1013.09 1013.13 1013.25 1013.25 1013.21 1013.09 1012.81
1017.01 1017.05 1017.09 1017.17 1017.25 1017.33 1017.41 1017.53 1017.61 1017.65 1017.73 1017.81 1017.89 1017.93 1018.01 1018.17 1018.21 1018.17 1018.17 1018.21 1018.25 1018.25 1018.21 1018.01 1017.85 1017.85 1017.85 1017.85 1018.01 1017.89 1017.85 1018.05 1018.25 1018.29 1018.37 1018.37 1018.29 1018.25 1018.29 1018.25 1018.17 1018.13 1017.89 1017.73 1017.81 1017.25 1017.25 1017.25 1017.21 1017.25 1016.97 1016.65 1016.93 1016.81 1016.69 1016.77 1016.61 1016.41 1016.21 1015.97 1015.49 1015.29 1015.13 1014.81 1014.25 1013.81 1013.73 1013.41 1012.93 1012.93 1012.89 1012.73 1012.57 1012.41
Wind_Speed
6 5 6 6 6 4 4 4 5 5 4 5 4 3 5 6 8 3 2 1 0 2 1 2 3 4 4 6 5 4 4 6 7 5 5 6 5 11 14 14 15 15 16 16 14 12 10 8 10 10 10 11 11 10 10 10 10 12 14 16 18 19 21 24 27 27 25 26 25 24 22 21 21 22
5 6 5 5 6 4 5 5 4 4 5 5 6 6 4 4 7 4 5 1 1 1 2 1 1 3 6 4 5 3 4 8 7 5 5 6 6 13 13 14 15 15 16 17 16 13 13 9 9 10 10 10 10 9 9 10 11 13 15 15 16 19 22 25 29 28 27 26 24 24 24 23 22 22
6 6 6 4 4 4 4 4 5 4 5 6 6 5 6 6 6 6 4 4 2 1 2 2 1 1 3 4 3 4 4 6 7 5 6 6 12 12 10 14 15 15 16 16 17 15 15 11 9 10 11 10 10 10 10 10 11 13 14 13 15 20 23 26 29 29 28 25 24 23 23 23 23 22
6 6 6 4 5 4 4 4 4 4 4 5 6 5 6 4 4 5 4 4 0 2 0 1 4 3 4 3 5 5 5 5 7 5 6 6 8 7 7 11 14 15 16 16 17 16 13 12 10 10 12 11 11 11 10 10 10 11 12 12 14 19 23 28 29 28 27 25 23 23 22 22 23 23
5 5 5 4 3 3 4 4 4 4 4 5 5 5 6 4 3 5 3 3 1 2 1 1 2 4 3 4 4 6 6 7 7 6 4 5 6 6 7 7 12 14 15 16 17 17 15 14 12 11 11 12 12 11 11 11 9 10 11 11 12 17 24 27 28 27 26 25 23 22 22 22 22 22
4 5 6 4 4 4 5 5 5 5 5 5 6 4 4 4 3 1 3 1 1 1 4 5 3 4 3 3 3 5 7 7 6 8 8 6 4 6 6 7 8 14 14 16 16 17 17 15 15 13 12 13 13 13 13 12 9 8 10 11 14 20 23 24 27 26 26 24 23 22 22 21 21 20
5 5 5 5 4 4 5 5 5 5 6 5 7 5 4 4 3 3 3 2 1 0 2 2 3 3 4 2 4 6 4 4 3 5 7 7 6 5 5 6 6 11 14 15 15 15 16 17 16 15 13 14 15 15 15 14 10 9 9 11 16 20 23 22 20 22 25 24 22 22 21 21 21 20
6 6 5 4 5 4 5 5 6 5 5 6 6 5 3 4 4 3 4 3 2 1 1 3 2 3 3 2 2 5 5 6 6 3 5 6 6 5 6 5 6 10 14 14 14 14 15 16 17 16 16 16 16 17 18 17 10 9 9 11 17 20 22 22 21 19 23 23 21 21 21 20 21 21
6 6 5 4 4 5 6 4 6 5 6 4 6 5 3 4 4 4 5 4 3 3 3 2 2 2 2 1 2 3 5 8 6 3 3 5 7 8 5 5 6 9 12 13 14 14 15 16 17 16 16 17 18 18 19 20 13 9 8 11 16 20 22 22 22 20 19 20 21 21 21 21 21 21
5 5 5 4 5 5 6 5 4 5 5 5 5 5 4 4 4 5 4 4 4 5 2 1 3 3 4 4 2 2 3 5 7 9 9 6 5 8 11 9 6 4 5 6 8 9 11 14 16 15 15 16 17 18 18 19 15 10 8 11 16 19 22 22 22 21 19 19 20 21 20 21 21 21
5 5 4 4 5 6 5 5 6 6 5 6 5 4 4 3 5 5 4 4 5 4 3 2 2 2 1 1 3 4 4 2 0 3 8 10 8 6 6 10 10 7 7 9 12 12 12 13 11 13 15 16 17 17 17 16 15 10 8 10 15 19 21 22 22 21 21 20 19 17 17 19 21 22
5 5 5 5 5 6 5 6 5 6 6 5 5 2 4 4 5 4 4 5 4 4 4 4 3 2 2 5 2 3 4 5 4 1 1 6 9 10 9 7 7 8 7 7 8 10 9 10 11 12 13 15 15 16 15 14 14 11 8 10 14 19 22 22 22 21 21 21 21 18 17 18 19 21
6 5 5 5 5 5 7 8 6 6 6 6 5 2 4 4 6 4 4 4 5 4 4 4 2 3 5 3 3 6 3 4 5 5 3 4 7 6 7 10 9 4 6 7 7 9 7 7 8 7 8 9 11 12 15 11 12 12 9 10 14 18 21 23 22 21 20 20 20 19 19 18 18 19
5 5 5 5 11 11 10 9 9 8 7 6 6 6 5 6 5 4 4 4 4 4 5 2 2 4 5 5 3 2 3 3 4 5 5 6 7 7 7 8 5 5 4 8 10 10 7 5 8 8 8 9 8 7 9 9 10 10 8 10 14 17 20 22 23 22 21 20 20 19 20 20 19 18
5 4 4 4 7 7 8 6 8 8 9 9 8 7 6 6 6 5 4 2 2 2 1 1 0 1 4 6 3 2 5 4 3 4 4 5 5 4 5 6 10 4 5 7 8 10 9 4 7 8 9 9 8 8 9 17 16 13 9 10 13 16 19 21 22 22 22 21 21 21 21 22 22 20
5 5 4 3 3 4 5 5 4 6 8 8 7 6 5 4 5 2 1 2 1 1 1 1 2 1 4 5 5 3 1 4 5 5 5 3 3 5 4 5 6 8 4 6 7 10 9 5 6 8 9 8 7 9 14 18 18 16 11 10 13 16 18 21 21 21 21 21 22 22 22 22 22 22
5 5 4 3 3 3 8 5 4 5 4 6 7 6 4 3 4 4 5 4 1 4 2 1 3 4 2 3 4 1 2 2 5 5 6 5 4 3 5 6 4 11 4 5 5 7 10 5 6 8 10 8 7 9 12 17 19 18 12 10 13 16 17 20 21 21 20 21 21 22 22 22 22 22
6 6 5 3 2 1 1 1 2 2 2 3 3 3 2 1 1 3 6 8 6 5 4 3 3 3 5 5 4 6 2 4 6 5 6 4 4 5 6 6 8 10 4 2 2 5 9 8 6 8 9 8 8 8 13 17 18 19 14 10 13 16 16 18 20 21 21 21 21 21 21 22 22 22
9 9 10 10 9 6 5 5 5 5 4 3 3 3 2 1 0 1 3 3 4 5 5 5 6 7 4 6 7 7 5 5 6 5 6 4 4 5 6 6 5 8 3 0 1 4 9 7 7 8 8 8 9 8 10 15 18 19 15 11 13 16 16 17 19 19 20 21 21 21 21 22 22 22
10 10 10 10 10 11 10 11 13 10 5 4 4 4 2 1 1 1 3 5 7 6 7 6 6 7 6 7 7 8 8 7 5 3 2 2 3 3 5 6 6 4 7 2 2 3 7 7 5 9 8 7 8 9 8 12 17 18 16 12 13 15 16 17 18 18 19 20 20 21 21 21 23 22
7 8 9 9 9 9 9 11 12 11 8 5 5 4 2 2 1 0 2 4 3 9 9 9 9 11 12 12 12 14 15 10 5 1 3 5 2 6 6 6 5 8 6 2 1 2 5 7 4 8 9 8 7 7 8 8 13 17 16 13 13 15 15 16 18 18 18 19 20 21 21 21 22 22
7 8 15 11 8 7 7 10 11 12 10 6 5 4 3 2 2 1 2 2 2 2 5 7 9 10 10 11 12 11 9 4 5 1 3 3 2 6 4 4 5 7 6 3 1 5 5 6 3 5 8 8 4 7 7 9 11 13 12 14 13 14 15 16 18 18 18 19 19 20 21 20 20 13
7 8 11 13 9 7 8 11 12 13 10 6 5 5 4 3 3 3 1 1 2 3 4 1 3 5 6 4 5 7 11 8 3 4 4 2 1 4 6 5 4 6 6 2 1 6 7 6 6 1 5 6 8 6 8 9 9 9 8 9 9 13 15 15 16 17 18 18 18 19 20 20 18 10
6 8 7 8 11 12 11 12 13 13 12 7 5 5 5 5 5 5 3 2 1 1 1 4 3 4 4 3 4 5 5 4 2 5 4 2 2 2 4 5 1 3 4 3 3 3 4 1 7 5 0 2 6 10 9 10 9 9 7 9 8 11 12 12 12 16 17 16 17 18 19 18 17 10
8 7 6 5 9 12 12 13 14 13 13 10 7 6 6 6 5 6 3 3 3 1 1 3 3 4 4 4 4 5 5 4 3 3 2 1 3 2 4 5 5 5 6 5 1 3 3 3 5 6 6 3 4 5 9 9 9 8 10 8 9 9 7 8 8 10 13 17 16 16 16 17 18 13
6 7 6 6 8 12 12 13 14 14 13 13 6 7 7 8 10 5 3 3 2 1 1 2 4 4 5 5 5 6 6 4 3 4 4 3 3 3 5 4 4 4 6 7 7 2 3 5 3 6 5 4 8 6 6 9 9 11 10 10 10 8 5 8 9 9 10 10 11 13 14 15 15 15
8 6 6 7 10 12 12 13 14 14 14 9 6 8 9 10 8 5 3 2 1 0 1 1 4 4 3 4 5 6 7 6 4 4 4 4 3 3 3 3 5 6 7 7 4 2 1 4 3 2 6 4 5 9 8 6 9 10 11 11 11 9 6 6 9 9 9 10 10 15 15 14 14 13
6 5 5 6 9 11 12 13 13 13 12 9 10 10 11 9 7 3 3 2 2 1 2 3 3 4 3 2 4 6 6 5 4 5 4 5 4 3 5 4 3 5 6 5 5 3 2 3 7 4 3 4 6 6 8 9 8 8 9 12 11 10 8 6 9 9 9 8 9 9 9 12 13 12
5 4 4 3 5 9 11 13 12 9 11 11 9 10 9 7 4 4 4 3 2 2 4 5 4 4 6 5 6 6 6 6 4 3 4 4 4 3 3 4 4 3 3 3 4 4 2 2 5 6 6 1 4 7 5 8 7 9 8 9 11 13 10 7 8 9 10 9 9 8 7 8 10 9
6 5 4 5 4 5 7 6 5 6 7 9 8 8 6 4 5 4 4 3 4 5 5 4 6 6 4 5 5 4 4 5 6 2 3 5 6 6 6 9 9 8 5 3 4 4 4 3 3 4 7 8 4 6 5 5 8 10 9 7 8 11 8 10 9 9 9 10 9 9 7 6 6 8
5 3 1 2 4 3 8 10 8 7 6 5 4 4 4 4 5 5 5 5 5 5 5 5 6 5 5 4 4 6 6 6 7 2 1 3 5 4 4 3 6 7 9 8 7 4 4 4 2 1 5 8 8 8 7 3 7 9 10 9 8 7 10 11 10 8 9 9 8 8 7 7 7 7
4 3 3 4 3 3 3 4 3 4 4 5 4 5 5 5 4 4 4 4 3 5 5 5 5 5 4 5 6 6 7 7 7 2 0 1 4 4 2 4 5 5 7 8 8 9 6 3 4 4 1 3 4 8 7 5 6 7 9 10 9 10 8 9 10 10 8 7 8 9 8 7 8 8
3 3 2 2 3 3 3 4 5 5 5 5 5 4 4 4 4 4 4 6 6 6 5 6 6 7 5 6 5 6 6 7 7 1 2 2 2 3 0 2 5 5 7 8 8 9 8 7 5 4 5 4 4 6 4 7 8 6 7 9 8 9 10 10 8 8 9 9 10 8 8 8 7 7
4 4 5 4 4 5 4 5 6 6 6 6 5 5 4 5 5 5 5 6 7 5 6 6 6 7 5 6 6 6 7 7 6 2 3 3 0 1 2 5 6 6 4 6 7 8 7 7 8 9 6 5 4 4 6 5 7 8 7 7 6 8 10 9 10 8 4 2 5 9 9 9 8 6
6 6 7 6 5 6 5 5 5 5 5 6 5 5 6 5 6 5 5 7 5 6 5 6 6 6 6 7 7 6 7 7 6 5 2 2 1 2 3 4 6 6 6 7 7 7 5 6 7 8 8 7 9 7 4 5 3 7 8 8 7 7 9 9 9 10 7 6 5 8 10 8 8 7
7 7 7 7 6 6 6 6 6 6 6 5 5 5 4 6 7 6 6 7 6 6 5 6 6 6 6 7 8 8 7 3 4 4 6 5 4 4 2 4 4 6 6 6 7 7 4 6 4 5 7 8 7 8 12 4 4 2 6 8 8 8 8 9 9 9 8 8 5 5 7 8 9 8
7 6 7 7 7 7 7 7 7 6 6 6 6 6 6 6 6 6 7 4 5 5 7 6 6 6 6 6 7 5 4 3 4 5 5 4 2 3 4 6 5 5 5 7 6 6 3 5 6 3 5 7 7 9 9 8 9 2 4 4 8 8 7 8 9 11 9 6 8 5 4 6 8 8
8 7 7 7 7 7 7 7 6 7 7 7 7 6 6 7 6 6 4 4 6 6 6 6 6 6 6 6 6 6 4 4 3 5 5 3 3 5 5 5 5 6 6 7 6 7 4 5 7 4 2 4 7 8 9 7 8 7 7 3 6 9 7 7 10 10 12 9 5 7 5 7 8 8
7 8 8 8 8 7 8 8 7 8 7 7 7 7 7 6 6 6 5 6 6 7 6 5 6 7 6 6 6 6 5 4 4 5 5 4 5 5 6 4 6 5 3 6 6 7 5 5 7 7 4 4 6 7 6 6 8 10 12 9 4 6 6 6 7 8 8 10 10 9 5 7 9 8
8 7 7 7 7 7 8 7 7 7 7 7 7 6 6 7 6 6 6 5 5 5 4 5 6 5 5 6 5 4 3 4 5 4 5 6 5 4 5 5 5 5 3 5 6 7 7 7 7 6 6 6 7 7 7 7 7 7 8 11 5 5 4 6 5 7 10 8 7 8 11 10 10 7
6 7 7 7 7 7 7 7 6 5 5 6 6 6 6 6 5 6 6 5 4 4 4 5 4 5 6 5 5 6 5 5 5 5 5 5 5 5 5 4 4 2 2 6 6 6 7 8 4 3 4 6 5 3 2 5 9 9 10 11 17 13 2 7 3 5 6 7 6 6 7 8 7 8
8 8 8 7 8 8 6 6 6 6 7 7 7 6 6 4 4 5 4 4 4 4 5 6 6 6 6 6 6 5 5 5 5 4 5 4 5 5 4 3 4 4 2 6 7 7 8 6 6 6 5 4 4 4 6 7 7 9 8 9 10 12 17 15 6 3 3 5 5 8 8 7 4 7
6 7 7 7 7 6 6 7 6 7 7 7 5 5 4 4 3 3 5 5 6 5 5 6 6 6 7 5 5 5 5 5 5 5 5 4 4 5 6 6 5 6 5 7 7 6 7 7 5 5 6 4 1 0 5 7 6 6 8 9 10 10 11 13 13 15 11 2 8 5 3 2 3 6
6 7 7 6 6 6 6 6 6 6 6 7 6 6 6 6 6 6 6 6 7 7 6 6 6 5 6 6 4 2 3 5 5 5 6 6 5 5 5 6 6 6 6 6 6 7 6 6 5 2 5 6 3 2 6 5 7 7 7 7 7 8 10 10 11 10 10 12 6 3 7 9 12 14
6 6 6 6 6 6 6 6 6 6 6 6 4 5 5 5 6 6 6 6 6 6 5 6 6 6 5 3 2 5 6 5 5 5 5 6 5 5 5 6 6 6 6 5 3 7 5 5 5 3 2 5 1 2 5 3 5 6 6 7 9 8 7 7 9 10 9 8 12 14 12 11 9 8
Wind_Direction
126 118 118 120 123 120 114 106 114 121 110 109 110 117 140 148 133 157 101 291 21 324 347 65 314 10 0 356 354 9 18 5 16 13 2 352 340 346 349 347 349 348 345 342 350 352 332 319 326 338 341 353 357 353 344 334 325 325 329 337 340 338 336 336 334 330 323 316 311 307 305 305 303 303
125 119 113 119 115 126 102 113 116 115 120 108 98 90 89 118 136 156 134 180 235 326 306 74 359 339 342 358 356 10 12 358 17 15 1 350 345 348 346 347 347 345 343 341 344 357 341 317 315 321 323 338 340 334 329 320 312 315 325 333 332 334 336 335 334 330 326 319 312 308 304 302 301 302
123 126 125 124 125 125 113 108 107 110 107 104 97 91 93 86 112 127 122 127 264 190 21 295 300 308 307 1 4 3 15 358 15 11 360 349 348 346 343 343 342 341 339 340 339 350 341 316 299 303 301 314 319 317 312 306 300 310 322 325 324 331 333 334 334 332 328 322 315 310 307 303 301 297
128 131 131 137 140 140 109 85 78 83 82 108 102 100 94 98 110 111 112 109 122 250 311 278 293 357 339 21 30 8 4 4 17 6 355 347 344 342 338 336 338 336 336 336 337 338 334 316 294 294 291 292 298 304 294 288 293 304 314 321 320 327 329 335 336 333 330 324 318 313 311 307 303 299
129 132 129 135 136 123 95 97 79 71 84 83 89 98 102 98 108 107 102 100 14 313 277 276 311 325 11 17 19 18 2 1 357 355 356 350 344 336 334 330 328 332 333 333 333 331 328 317 299 290 288 286 286 288 285 284 289 300 312 315 318 321 329 334 337 335 331 326 322 317 314 313 308 302
131 126 119 118 120 110 114 100 85 96 79 86 83 51 95 99 55 68 106 115 106 317 322 348 332 345 36 31 5 23 3 353 352 351 344 344 345 332 325 329 327 325 327 330 330 328 325 317 306 293 292 286 284 286 285 284 286 297 305 313 319 327 330 332 336 335 334 329 324 320 318 316 311 305
139 124 124 132 131 119 96 92 95 89 90 89 88 77 82 86 68 52 97 114 83 351 305 283 346 354 346 48 6 3 353 345 352 343 339 334 326 328 326 323 317 318 327 328 326 324 322 318 310 302 302 299 293 291 290 288 287 294 305 314 324 329 332 334 332 332 334 333 326 321 319 316 313 309
141 138 129 138 124 114 104 99 90 88 95 93 92 86 72 86 72 70 74 79 129 151 35 316 18 333 28 331 347 359 346 341 338 341 313 321 330 330 328 326 319 324 320 319 323 324 322 318 312 307 307 312 313 305 298 293 290 289 300 317 327 330 334 334 333 330 332 333 328 322 318 317 314 311
143 143 144 149 123 119 111 101 92 94 92 100 96 91 77 81 76 60 63 68 82 108 73 313 299 325 0 313 328 21 10 331 331 339 1 332 318 329 332 326 317 310 315 322 327 326 324 319 313 310 310 316 320 318 310 303 296 283 296 319 325 331 336 336 333 331 329 330 330 325 321 319 314 310
147 148 152 142 133 127 125 121 104 96 99 89 83 86 76 79 70 67 54 73 78 80 101 111 5 353 26 348 325 300 18 343 328 337 340 345 354 344 335 334 322 318 321 323 323 325 322 315 314 312 314 316 317 316 314 313 308 281 291 318 324 332 338 337 333 333 332 331 332 327 322 319 316 312
142 138 132 132 134 129 130 125 120 112 100 98 92 103 100 84 83 71 67 70 68 68 66 48 67 351 304 64 325 312 352 313 295 323 340 338 334 334 334 328 330 333 329 321 322 322 317 314 316 316 316 315 314 312 312 317 316 287 289 315 322 335 340 339 335 333 333 334 333 326 319 316 315 314
127 130 128 129 134 132 133 127 134 122 121 111 99 112 108 97 90 90 87 73 78 70 62 60 13 344 301 338 293 307 358 359 347 61 294 314 326 332 328 310 307 310 322 324 325 320 323 322 322 324 320 312 309 311 314 316 313 292 288 307 323 337 342 342 338 334 333 334 333 329 320 314 310 311
124 123 127 125 131 133 133 132 138 141 141 127 121 137 121 111 109 107 91 107 96 77 74 31 22 11 350 310 330 332 327 338 303 301 351 312 311 312 319 319 313 292 313 318 324 321 326 323 321 320 313 305 309 309 311 311 304 289 283 302 325 337 344 346 342 338 334 333 329 325 322 316 309 304
126 129 128 140 134 127 127 123 124 129 132 133 134 152 133 125 112 115 112 97 103 98 75 65 36 6 320 292 290 259 260 285 299 323 333 327 312 330 323 313 295 315 329 333 333 322 319 335 316 317 308 302 309 306 312 306 310 294 282 306 326 334 344 348 345 341 339 335 331 326 326 324 317 307
124 110 112 114 118 118 114 118 127 133 130 125 132 140 140 144 136 125 103 121 141 122 136 171 144 208 274 289 267 251 280 284 282 290 300 290 304 322 336 323 312 305 42 336 329 318 319 346 320 311 307 304 309 307 305 312 318 309 292 307 321 331 343 349 348 344 341 338 334 331 329 327 324 318
115 114 102 94 102 120 133 138 142 147 143 135 125 108 87 69 25 15 126 144 149 154 154 228 240 216 260 266 300 290 263 296 316 307 303 286 288 314 319 297 304 292 29 349 328 310 307 342 323 316 309 309 306 305 308 313 320 320 303 306 317 327 340 348 350 347 343 340 336 334 332 329 326 323
119 115 106 104 128 151 152 145 166 167 157 145 143 135 148 152 177 231 276 288 186 157 148 202 258 201 228 278 281 210 282 320 306 307 311 304 310 277 286 280 282 301 1 359 321 306 305 324 332 319 307 310 310 309 311 314 319 324 312 306 316 325 336 347 350 349 346 342 338 335 332 330 329 328
138 130 122 118 135 252 112 124 192 212 167 165 154 176 166 170 243 249 243 234 229 210 188 177 230 241 161 241 266 286 300 302 290 291 286 296 309 305 285 285 287 286 329 284 267 294 314 330 338 313 304 315 315 310 308 313 318 325 326 313 318 324 333 346 350 349 347 343 339 336 335 336 335 333
156 155 156 166 180 183 178 192 211 216 213 194 207 209 187 158 235 261 266 234 209 212 213 215 228 255 236 244 265 277 285 256 256 240 243 263 264 278 287 291 269 291 299 98 15 317 313 321 337 311 312 318 316 309 311 313 318 325 335 329 321 324 331 344 350 348 345 343 340 337 339 341 338 335
169 178 171 173 177 189 193 190 202 208 192 197 201 207 160 88 30 305 273 266 210 203 208 215 227 238 250 259 274 280 278 279 263 253 262 241 236 307 331 321 303 302 307 16 45 311 307 307 328 312 313 322 320 313 311 313 319 324 336 340 327 325 330 341 348 347 345 344 343 341 342 344 341 337
177 189 182 178 186 193 188 189 197 198 178 196 207 193 140 108 102 319 326 359 213 213 221 232 244 259 268 274 281 279 264 238 231 166 1 330 354 359 346 321 333 317 318 320 49 277 293 312 326 309 315 325 305 303 310 315 318 324 333 341 331 327 331 339 346 347 346 346 345 345 345 346 344 340
191 197 192 185 193 197 189 177 181 189 181 194 202 178 146 128 113 186 331 334 343 288 266 263 260 264 271 263 258 265 302 312 152 164 325 271 52 343 337 311 307 301 308 277 267 347 301 307 315 314 308 317 296 303 308 318 317 323 331 334 333 330 334 337 343 347 348 349 348 347 347 347 348 344
194 200 208 187 179 194 191 176 181 189 189 193 189 176 149 153 169 201 180 310 334 341 349 306 278 258 255 323 346 318 303 299 195 209 240 226 62 328 311 309 319 336 314 285 73 8 306 338 309 48 329 331 299 313 327 322 321 322 327 333 332 331 334 335 339 343 349 351 350 350 349 349 354 347
203 200 203 195 194 194 185 182 187 192 192 188 190 164 173 175 204 186 167 202 190 251 263 290 295 282 282 295 329 330 313 304 197 218 219 206 192 256 292 292 237 247 254 271 71 1 275 326 315 335 262 284 325 325 327 324 324 320 330 334 332 333 332 334 339 337 344 349 351 352 350 351 356 353
187 199 202 200 197 191 185 185 188 191 200 198 185 183 189 199 170 145 150 177 187 233 268 290 295 312 336 329 320 318 295 286 297 300 281 210 194 206 270 301 304 282 258 259 65 27 306 306 310 329 326 329 267 315 315 318 319 328 333 332 331 332 333 331 338 338 338 343 348 354 353 352 357 358
195 201 199 203 205 197 188 187 186 192 200 201 188 202 188 145 138 160 166 161 174 196 268 305 316 332 347 337 318 310 300 299 291 281 273 260 230 213 207 226 259 288 294 302 1 352 332 320 315 325 304 347 310 319 316 324 319 329 332 333 337 325 331 328 336 338 339 339 342 348 352 354 356 357
205 207 202 209 196 189 191 189 192 197 199 193 207 191 169 168 165 152 160 162 168 247 268 312 304 305 319 328 307 296 292 299 292 277 268 265 267 287 264 212 207 227 259 286 299 293 17 298 307 339 309 306 311 319 327 325 320 329 332 336 333 328 342 342 340 338 338 338 335 338 345 354 3 358
198 193 205 210 199 194 197 197 197 199 190 198 198 181 187 173 165 161 160 175 197 219 288 276 274 283 279 275 288 271 262 270 276 274 278 284 291 307 307 288 257 230 247 260 288 317 7 322 317 320 294 286 314 325 319 308 309 320 327 325 328 331 341 351 339 336 338 336 335 340 350 356 353 354
177 188 174 182 208 201 200 205 205 201 202 204 189 191 186 173 164 177 188 193 169 232 255 253 258 264 254 240 254 273 286 283 289 291 297 302 311 319 285 268 253 259 276 306 313 313 313 296 302 314 330 319 331 308 321 304 307 317 331 334 334 332 331 341 345 339 337 341 338 339 351 347 352 357
138 138 167 192 219 220 214 199 192 198 207 207 195 200 192 187 191 188 188 188 193 233 243 242 245 247 256 268 268 280 278 284 280 284 304 335 325 347 354 349 341 338 322 294 291 298 316 331 311 318 329 329 328 307 308 324 319 316 325 339 317 310 319 341 344 339 344 342 336 339 338 347 351 353
125 143 168 160 180 220 200 200 202 199 182 173 196 212 208 211 210 200 197 203 210 230 239 245 249 253 257 278 307 290 293 291 288 220 239 301 292 340 330 346 324 330 321 321 317 307 321 325 329 29 346 322 322 322 312 305 299 317 323 331 345 342 314 328 337 345 339 333 328 333 332 342 353 3
143 130 118 88 74 89 119 169 160 194 186 196 192 208 211 219 221 219 218 226 224 236 228 251 262 275 268 274 265 273 273 272 272 283 210 270 300 318 335 357 319 313 312 317 319 320 327 324 335 322 267 250 284 305 321 310 293 304 320 327 335 323 321 332 331 334 337 325 339 343 334 341 348 353
109 102 100 86 98 109 154 179 194 196 195 210 210 214 222 227 226 216 204 225 235 235 222 241 244 255 262 263 264 258 270 266 263 265 320 277 221 302 81 300 287 307 312 311 312 314 319 324 333 316 304 285 237 258 277 316 318 328 326 321 331 326 329 331 335 329 333 346 344 331 336 337 340 345
160 174 176 182 165 168 183 200 206 203 199 203 213 227 232 235 237 230 225 231 243 235 225 238 241 247 245 263 265 254 241 266 274 260 203 271 308 286 300 309 297 299 294 289 301 301 312 325 338 334 336 333 298 239 236 260 296 317 321 318 327 329 321 329 332 334 344 313 308 334 339 335 333 336
189 196 198 208 199 192 194 206 214 210 206 208 210 230 234 238 237 237 230 235 234 234 234 239 241 249 237 247 248 242 241 241 275 305 271 214 214 230 257 269 289 298 299 300 297 293 317 322 345 344 336 346 352 319 208 199 300 317 332 326 330 327 321 327 326 328 333 337 2 351 331 332 334 326
201 194 201 204 208 203 203 215 210 212 213 212 211 221 239 249 239 229 238 234 221 232 234 242 243 236 234 235 239 233 243 233 257 268 291 295 303 297 260 248 257 282 286 277 277 286 313 311 5 3 339 334 347 337 326 270 173 266 318 310 321 327 321 326 326 319 336 345 352 356 340 323 317 319
198 202 204 206 208 205 212 210 208 215 213 213 218 215 221 237 243 225 237 234 228 234 235 231 239 236 236 235 240 243 231 207 252 258 261 271 265 259 282 294 286 280 295 280 275 284 316 307 327 359 345 330 336 318 300 299 311 231 185 297 321 323 329 326 327 333 334 342 326 354 311 297 304 313
204 200 208 211 209 212 215 215 207 212 215 215 220 225 227 234 242 243 234 214 235 236 237 226 237 233 234 224 221 240 238 226 230 258 258 256 271 276 250 260 282 286 276 285 293 289 289 274 291 289 292 299 309 308 313 310 325 319 146 90 327 311 327 345 336 336 322 324 315 311 319 310 303 303
202 202 206 211 212 208 213 216 207 212 213 212 216 222 229 235 238 251 253 244 246 244 242 229 232 227 221 213 204 203 215 213 220 244 259 262 234 244 270 261 277 273 296 297 301 301 310 305 294 292 272 264 278 277 272 281 288 299 305 310 237 293 318 337 318 316 321 326 330 322 278 232 258 272
209 204 209 209 219 217 224 218 214 213 213 212 214 218 218 224 229 232 244 249 250 249 234 238 244 238 226 210 196 190 200 211 226 238 241 252 254 239 250 255 243 272 309 288 295 295 303 291 284 280 279 255 250 255 251 246 254 284 286 306 179 172 273 321 315 318 320 319 325 336 329 334 346 334
212 211 218 210 217 220 225 227 223 217 221 222 223 221 217 215 219 230 236 247 238 245 249 252 242 219 213 203 192 174 205 227 221 230 235 243 255 256 258 250 268 221 223 276 272 285 279 270 280 312 263 269 277 290 338 347 325 317 320 313 321 328 277 192 255 303 296 302 319 302 310 318 311 327
204 215 218 212 217 220 213 216 213 209 217 212 212 210 217 225 235 257 269 276 262 246 247 253 233 214 217 212 201 185 202 227 239 247 231 228 256 271 254 209 245 265 208 254 272 270 277 304 326 322 310 324 341 6 313 292 298 310 308 312 316 321 332 337 337 239 238 272 333 339 333 331 1 343
207 221 222 218 215 216 211 212 208 205 213 210 212 216 217 242 250 260 259 257 259 257 252 247 231 220 228 229 219 200 202 229 231 239 252 243 234 255 271 262 236 247 245 263 270 277 289 301 319 330 322 338 295 179 290 293 292 292 306 321 319 321 323 331 341 342 354 306 212 214 210 246 337 330
211 215 222 211 207 209 212 208 209 204 207 205 216 215 210 228 249 246 244 255 261 259 246 237 236 225 235 240 240 226 214 232 231 230 243 249 245 240 244 259 264 266 267 264 288 294 298 306 300 330 333 306 305 328 300 317 310 303 302 292 301 326 328 326 331 346 351 360 5 232 268 239 227 245
215 217 217 212 206 207 211 210 208 213 210 219 221 224 230 225 235 248 250 245 250 252 245 231 225 222 216 227 231 258 251 237 234 242 243 257 257 250 246 249 260 269 272 266 286 297 307 308 310 336 264 274 268 255 280 250 269 304 310 319 319 322 321 329 341 341 344 338 329 344 352 354 351 331